Location: Fredericton
(45.9636°N, 66.6431°W)
Time: 05:21:53
(UTC-04:00)

ISS - Visible Passes

Search period start: 01 December 2020 00:00
Search period end: 11 December 2020 00:00
Orbit: 418 x 420 km, 51.6° (Epoch: 01 December)

Date Brightness Start Highest point End Pass type
(mag) Time Alt. Az. Time Alt. Az. Time Alt. Az.
01 Dec -2.6 18:42:15 10° WNW 18:44:48 34° NNW 18:44:48 34° NNW visible
02 Dec -2.8 17:54:39 10° WNW 17:57:45 33° N 17:59:13 22° NE visible
02 Dec -0.8 19:31:27 10° WNW 19:32:11 16° WNW 19:32:11 16° WNW visible
03 Dec -3.3 18:43:52 10° WNW 18:46:40 53° NNW 18:46:40 53° NNW visible
04 Dec -3.4 17:56:17 10° WNW 17:59:34 48° NNE 18:01:15 24° E visible
04 Dec -0.8 19:33:12 10° WNW 19:34:14 17° W 19:34:14 17° W visible
05 Dec -3.3 18:45:28 10° WNW 18:48:47 57° SSW 18:48:57 56° SSW visible
06 Dec -3.8 17:57:50 10° WNW 18:01:12 87° SSW 18:03:52 15° ESE visible
06 Dec -0.7 19:35:35 10° W 19:36:52 14° WSW 19:36:52 14° WSW visible
07 Dec -1.5 18:47:23 10° W 18:50:07 23° SW 18:52:05 14° S visible
08 Dec -2.2 17:59:29 10° WNW 18:02:37 36° SW 18:05:43 10° SSE visible
09 Dec -3.0 17:11:43 10° WNW 17:15:03 57° SSW 17:18:20 10° SE visible
10 Dec -0.6 18:01:46 10° W 18:03:46 15° SW 18:05:46 10° S visible
